Location: The Saddle
(36.8333°N, 80.3417°W)
Time: 13:40:32
(UTC-04:00)

ACS3 Solar Sail - Visible Passes

Search period start: 07 October 2024 00:00
Search period end: 17 October 2024 00:00
Orbit: 962 x 1035 km, 97.4° (Epoch: 07 October)

Date Brightness Start Highest point End Pass type
(mag) Time Alt. Az. Time Alt. Az. Time Alt. Az.
07 Oct 2.4 20:36:56 36° E 20:37:29 37° ENE 20:43:13 10° N visible
07 Oct 3.3 22:22:06 32° W 22:22:06 32° W 22:26:59 10° NNW visible
08 Oct 1.8 21:09:07 67° ENE 21:09:07 67° ENE 21:15:17 10° N visible
08 Oct 4.2 22:54:17 17° W 22:54:17 17° W 22:57:21 10° NW visible
09 Oct 3.2 19:56:08 17° ENE 19:57:22 18° ENE 20:01:27 10° NNE visible
09 Oct 2.2 21:41:17 64° WNW 21:41:17 64° WNW 21:46:58 10° NNW visible
10 Oct 2.5 20:28:17 33° ENE 20:28:38 33° ENE 20:34:09 10° N visible
10 Oct 3.2 22:13:26 35° WNW 22:13:26 35° WNW 22:18:12 10° NNW visible
11 Oct 1.9 21:00:25 58° ENE 21:00:25 58° ENE 21:06:16 10° N visible
11 Oct 4.1 22:45:34 19° WNW 22:45:34 19° WNW 22:48:44 10° NW visible
12 Oct 3.3 19:47:23 15° ENE 19:48:29 16° ENE 19:52:06 10° NNE visible
12 Oct 2.1 21:32:33 65° NW 21:32:33 65° NW 21:37:58 10° NNW visible
13 Oct 2.6 20:19:29 29° ENE 20:19:41 29° ENE 20:24:58 10° N visible
13 Oct 3.1 22:04:39 37° WNW 22:04:39 37° WNW 22:09:17 10° NNW visible
14 Oct 2.0 20:51:36 51° NE 20:51:36 51° NE 20:57:07 10° N visible
14 Oct 4.0 22:36:45 20° WNW 22:36:45 20° WNW 22:39:58 10° NW visible
15 Oct 3.4 19:38:31 14° ENE 19:39:29 14° ENE 19:42:31 10° NNE visible
15 Oct 2.1 21:23:41 63° NNW 21:23:41 63° NNW 21:28:51 10° NNW visible
16 Oct 2.8 20:10:36 26° ENE 20:10:36 26° ENE 20:15:36 10° NNE visible
16 Oct 3.0 21:55:44 39° WNW 21:55:44 39° WNW 22:00:12 10° NNW visible
